[[{"header":{"parameterUnit":"m.s-1","parameterCategory":1,"la1":30.2991,"la2":30.254,"lo1":-89.0895,"lo2":-89.0444,"dy":0.0017,"dx":0.0017,"nx":28,"ny":28,"refTime":"2024-02-19T09:00:00:Z","depth":0,"parameterNumber":2,"parameterNumberName":"U-component_of_WINDS"},"data":[0,0,0,0,0,0,0,0,0,0,0,0,0,0,0,0,0,0,0,0,0,0,0,0,0,0,0,0,0,0,0,0,0,0,0,0,0,0,0,0,0,0,0,0,0,0,0,0,0,0,0,0,0,0,0,0,0,0,1.2473,1.2474,0,1.2576,1.2577,1.2579,1.2612,1.2611,1.2611,1.261,1.2714,1.2717,1.2721,0,0,0,0,0,0,0,0,0,0,0,0,0,1.23,1.2303,1.2472,1.2474,1.2475,1.2576,1.2578,1.2579,1.2612,1.2611,1.2611,1.261,1.2713,1.2717,1.2721,0,0,0,0,0,0,0,0,0,0,0,0,0,1.2387,1.2304,1.2472,1.2504,1.2508,1.2576,1.2578,1.2579,1.2612,1.2611,1.2611,1.261,1.2712,1.2717,1.2721,1.2765,0,0,1.2736,1.2738,0,0,0,0,0,0,0,0,1.2382,1.2393,1.2498,1.2502,1.2506,1.258,1.2555,1.2642,1.2612,1.2572,1.261,1.261,1.267,1.2678,1.2699,1.277,1.2774,1.2736,1.2739,1.2741,1.2743,0,0,0,0,0,0,0,1.2376,1.2389,1.2513,1.2499,1.2504,1.2512,1.2523,1.2572,1.2624,1.2576,1.2578,1.259,1.2672,1.2695,1.2702,1.2776,1.2736,1.2741,1.2744,1.2745,1.2887,1.2888,0,0,0,0,0,0,1.2365,1.2383,1.251,1.2517,1.2441,1.2516,1.2528,1.2557,1.2623,1.2633,1.2591,1.2591,1.2687,1.2696,1.2706,1.2761,1.2741,1.2746,1.2749,1.2886,1.2887,1.2888,0,0,0,0,0,0,1.2361,1.2376,1.2506,1.2451,1.2468,1.2519,1.2551,1.256,1.2582,1.2635,1.2644,1.2604,1.2687,1.2699,1.275,1.2765,1.2748,1.2752,1.2885,1.2887,1.2888,1.2871,0,0,0,0,0,0,1.2356,1.2374,1.2392,1.2451,1.2471,1.2549,1.2552,1.2562,1.259,1.2592,1.265,1.2659,1.2687,1.2743,1.2755,1.2771,1.2756,1.2884,1.2886,1.2887,1.2871,1.2872,1.2873,0,0,0,0,0,1.235,1.2383,1.2393,1.2408,1.2494,1.255,1.2561,1.2594,1.2592,1.2609,1.2643,1.2657,1.2761,1.2748,1.2762,1.278,1.2883,1.2885,1.2887,1.287,1.2872,1.2873,0,0,0,0,0,0,1.2323,1.2391,1.2403,1.2456,1.2497,1.2556,1.2579,1.2594,1.2636,1.2636,1.2674,1.2687,1.2735,1.2763,1.2746,1.2825,1.2823,1.2828,1.2805,1.2807,1.2808,1.28,1.276,0,0,0,0,0,1.2323,1.2364,1.2421,1.2462,1.2483,1.2527,1.2553,1.2574,1.2618,1.2635,1.2673,1.2714,1.2757,1.2783,1.2825,1.2875,1.2888,1.2894,1.2895,1.2896,1.2899,1.2927,1.2931,1.2895,1.2895,1.2895,0,0,1.2324,1.2367,1.239,1.2458,1.2493,1.2533,1.2541,1.2584,1.2614,1.2642,1.2692,1.2721,1.277,1.282,1.2845,1.2845,1.2912,1.2899,1.2899,1.2902,1.293,1.2933,1.2936,1.2896,1.2896,1.2896,0,0,1.2347,1.2383,1.2422,1.2456,1.2508,1.2538,1.2547,1.2603,1.2624,1.2676,1.2697,1.2733,1.2805,1.2839,1.2865,1.29,1.2914,1.2913,1.2918,1.2945,1.2948,1.295,1.2962,1.2966,1.2916,1.2916,1.2916,0,1.2341,1.2403,1.2439,1.248,1.2509,1.2538,1.2576,1.2608,1.267,1.2689,1.2689,1.278,1.2815,1.2873,1.2882,1.2903,1.2914,1.2906,1.2945,1.2948,1.2951,1.2962,1.2967,1.2916,1.2916,1.2916,1.2916,0,1.2393,1.2436,1.2461,1.2522,1.2554,1.2593,1.2634,1.2662,1.2681,1.271,1.2762,1.2805,1.2856,1.2871,1.289,1.2933,1.2931,1.2937,1.2936,1.2953,1.2964,1.2969,1.2915,1.2915,1.2915,1.2916,0,0,1.2401,1.2481,1.249,1.2518,1.2577,1.2611,1.2652,1.2702,1.2725,1.2767,1.2802,1.2862,1.2868,1.2898,1.2921,1.2945,1.2969,1.2948,1.295,1.295,1.3017,1.3012,1.3016,1.2979,1.298,1.2981,1.3013,0,1.243,1.2505,1.2538,1.2598,1.2637,1.2665,1.27,1.274,1.2769,1.2806,1.2837,1.2879,1.2884,1.2903,1.2927,1.2961,1.2983,1.2959,1.301,1.3012,1.2996,1.3022,1.3017,1.3045,1.3018,1.3019,1.3019,0,1.2474,1.2518,1.2581,1.2636,1.2654,1.2685,1.2734,1.277,1.2815,1.2834,1.2868,1.289,1.2933,1.2929,1.2988,1.2971,1.2994,1.3014,1.3016,1.3021,1.3016,1.3027,1.3055,1.3059,1.3027,1.3026,1.3026,0,1.2472,1.2546,1.2594,1.2617,1.2683,1.2704,1.2732,1.2777,1.2805,1.2848,1.2866,1.2913,1.2938,1.2973,1.3007,1.3001,1.3063,1.3062,1.3079,1.3078,1.309,1.3088,1.312,1.3106,1.3106,1.3106,1.3106,0,1.2501,1.2538,1.2594,1.2623,1.2665,1.2703,1.2744,1.2774,1.2814,1.2849,1.2876,1.2907,1.295,1.2987,1.3014,1.3058,1.307,1.3086,1.3092,1.3083,1.3081,1.3098,1.3096,1.3107,1.3107,1.3106,1.3106,0,1.2505,1.2544,1.2598,1.2656,1.2671,1.27,1.2749,1.2778,1.2808,1.2852,1.2864,1.2911,1.2956,1.2993,1.3052,1.307,1.3116,1.3124,1.3101,1.3104,1.3118,1.3116,1.3162,1.3169,1.315,1.3151,1.3151,0,1.252,1.255,1.2611,1.2637,1.2665,1.2706,1.2735,1.2773,1.2802,1.2857,1.2879,1.2926,1.2966,1.3036,1.3075,1.312,1.3129,1.3142,1.3136,1.3125,1.3128,1.3125,1.3128,1.3142,1.3142,1.3142,1.3142,0,1.2543,1.2561,1.2602,1.265,1.2684,1.2724,1.2764,1.2783,1.2828,1.2859,1.2906,1.2937,1.2998,1.3044,1.3093,1.3121,1.3139,1.3143,1.315,1.314,1.3125,1.3132,1.3101,1.3142,1.3142,1.3142,1.3142,1.3142,1.2553,1.258,1.2628,1.2673,1.2707,1.2744,1.2774,1.2808,1.2848,1.2901,1.2921,1.2968,1.3013,1.3081,1.311,1.3147,1.3149,1.3158,1.316,1.3162,1.316,1.312,1.3156,1.3156,1.3156,1.3157,1.3157,0,1.2576,1.2608,1.2649,1.2705,1.274,1.2755,1.28,1.2828,1.287,1.291,1.2949,1.3003,1.3048,1.309,1.3137,1.3159,1.3168,1.317,1.3168,1.3174,1.3156,1.3146,1.3162,1.3162,1.3161,1.3161,1.3161,1.3161,1.2592,1.2639,1.2662,1.2726,1.2758,1.2806,1.283,1.2864,1.2897,1.2956,1.2994,1.3021,1.3063,1.3113,1.3155,1.3166,1.3181,1.3181,1.3194,1.3176,1.3175,1.3174,1.3165,1.3184,1.3184,1.3209,1.3209,1.3209]},{"header":{"parameterUnit":"m.s-1","parameterCategory":1,"la1":30.2991,"la2":30.254,"lo1":-89.0895,"lo2":-89.0444,"dy":0.0017,"dx":0.0017,"nx":28,"ny":28,"refTime":"2024-02-19T09:00:00:Z","depth":0,"parameterNumber":3,"parameterNumberName":"V-component_of_WINDS"},"data":[0,0,0,0,0,0,0,0,0,0,0,0,0,0,0,0,0,0,0,0,0,0,0,0,0,0,0,0,0,0,0,0,0,0,0,0,0,0,0,0,0,0,0,0,0,0,0,0,0,0,0,0,0,0,0,0,0,0,2.0481,2.0482,0,2.0528,2.0528,2.0529,2.0524,2.0524,2.0523,2.0522,2.0566,2.0568,2.057,0,0,0,0,0,0,0,0,0,0,0,0,0,2.0384,2.0386,2.0481,2.0482,2.0482,2.0528,2.0528,2.0529,2.0524,2.0523,2.0523,2.0522,2.0566,2.0568,2.057,0,0,0,0,0,0,0,0,0,0,0,0,0,2.0428,2.0387,2.0481,2.0486,2.0487,2.0527,2.0528,2.0529,2.0525,2.0523,2.0522,2.0521,2.0565,2.0568,2.057,2.0609,0,0,2.0579,2.058,0,0,0,0,0,0,0,0,2.0426,2.0432,2.0484,2.0485,2.0486,2.0519,2.051,2.0556,2.0525,2.051,2.0522,2.0521,2.0551,2.0555,2.0566,2.0611,2.0613,2.0579,2.0581,2.0582,2.0583,0,0,0,0,0,0,0,2.0423,2.043,2.0499,2.0485,2.0486,2.0484,2.0489,2.0519,2.0536,2.0511,2.0511,2.0517,2.0551,2.0563,2.0567,2.0613,2.0579,2.0581,2.0583,2.0584,2.069,2.0691,0,0,0,0,0,0,2.0419,2.0427,2.0498,2.0501,2.0453,2.0487,2.0492,2.051,2.0536,2.0539,2.0518,2.0516,2.0559,2.0564,2.0568,2.0614,2.0582,2.0584,2.0586,2.0689,2.069,2.0692,0,0,0,0,0,0,2.0417,2.0425,2.0496,2.0464,2.0473,2.0489,2.0509,2.0511,2.0523,2.054,2.0543,2.0527,2.0558,2.0565,2.0599,2.0616,2.0586,2.0588,2.0687,2.0689,2.0691,2.0706,0,0,0,0,0,0,2.0414,2.0425,2.044,2.0464,2.0475,2.0527,2.051,2.0513,2.0528,2.0527,2.055,2.0552,2.0558,2.0594,2.0601,2.0619,2.059,2.0686,2.0688,2.069,2.0704,2.0708,2.0712,0,0,0,0,0,2.0411,2.0442,2.0441,2.045,2.0495,2.0528,2.0533,2.054,2.053,2.0545,2.0556,2.0552,2.0613,2.0598,2.0606,2.0624,2.0685,2.0688,2.069,2.0702,2.0707,2.0712,0,0,0,0,0,0,2.0419,2.0446,2.0445,2.0485,2.0504,2.0527,2.0546,2.0545,2.0567,2.0565,2.0571,2.0576,2.061,2.0621,2.0604,2.0662,2.0647,2.0651,2.0654,2.0659,2.0662,2.0659,2.0593,0,0,0,0,0,2.0426,2.0452,2.0473,2.0507,2.0516,2.053,2.0544,2.0548,2.0567,2.0575,2.0589,2.0607,2.063,2.0645,2.0667,2.0706,2.071,2.0722,2.0726,2.0729,2.0732,2.0752,2.0757,2.07,2.07,2.07,0,0,2.044,2.0457,2.0473,2.0509,2.0524,2.0549,2.0537,2.0564,2.0582,2.0579,2.0612,2.0622,2.0643,2.0679,2.0696,2.0689,2.0749,2.0732,2.0734,2.0736,2.0755,2.0761,2.0765,2.0702,2.0702,2.0701,0,0,2.0478,2.0494,2.0524,2.0539,2.0563,2.0571,2.0578,2.0601,2.0608,2.0642,2.0639,2.066,2.07,2.0715,2.0727,2.077,2.0766,2.0777,2.0796,2.0815,2.082,2.0824,2.0838,2.0843,2.078,2.078,2.078,0,2.0491,2.0531,2.0539,2.0566,2.0581,2.058,2.0609,2.0624,2.0653,2.0662,2.0655,2.0704,2.0718,2.0757,2.0767,2.0778,2.0785,2.0774,2.0819,2.0823,2.0826,2.084,2.0845,2.0781,2.0781,2.0781,2.0781,0,2.0546,2.0573,2.0594,2.0623,2.064,2.0668,2.0679,2.0695,2.0697,2.0706,2.0739,2.0756,2.0781,2.079,2.0792,2.0829,2.0824,2.0817,2.0803,2.0833,2.0845,2.0851,2.0783,2.0782,2.0782,2.0782,0,0,2.0591,2.0623,2.0631,2.0644,2.0669,2.0689,2.0716,2.0742,2.0755,2.0775,2.0797,2.0831,2.0825,2.0839,2.0842,2.0859,2.089,2.085,2.0851,2.0856,2.093,2.0935,2.0941,2.0888,2.0889,2.089,2.0928,0,2.063,2.068,2.0688,2.0731,2.0755,2.0754,2.0778,2.0795,2.0804,2.0824,2.0834,2.0857,2.0848,2.0856,2.0873,2.0883,2.0905,2.088,2.0907,2.0908,2.0902,2.0947,2.0952,2.0988,2.0933,2.0934,2.0935,0,2.0684,2.0706,2.0752,2.0773,2.0783,2.0805,2.0828,2.0848,2.0867,2.0872,2.0888,2.0889,2.0915,2.09,2.0936,2.0919,2.093,2.0937,2.0938,2.094,2.0923,2.095,2.0999,2.1004,2.0943,2.0942,2.0942,0,2.0711,2.0752,2.0784,2.0795,2.0821,2.0836,2.0847,2.0865,2.0879,2.0899,2.0909,2.0931,2.0943,2.096,2.0966,2.0955,2.1001,2.0987,2.1005,2.1005,2.1014,2.1014,2.1065,2.1023,2.1023,2.1023,2.1023,0,2.0754,2.0782,2.0797,2.0817,2.0847,2.0855,2.0884,2.0895,2.0911,2.0931,2.0932,2.0951,2.0958,2.0978,2.0983,2.1012,2.1017,2.1021,2.1022,2.1021,2.102,2.1028,2.1025,2.1024,2.1024,2.1024,2.1024,0,2.0789,2.08,2.0836,2.0857,2.0863,2.0885,2.0902,2.0921,2.0929,2.0955,2.0962,2.0975,2.0998,2.1006,2.1035,2.1038,2.107,2.107,2.1064,2.1064,2.1082,2.108,2.114,2.1147,2.1101,2.1101,2.1102,0,2.0816,2.0838,2.0861,2.0876,2.0888,2.0911,2.0926,2.0934,2.0949,2.0971,2.0987,2.101,2.1029,2.1067,2.1078,2.1099,2.1098,2.1117,2.1101,2.1099,2.1097,2.1095,2.1097,2.112,2.1121,2.1121,2.1121,0,2.0862,2.0866,2.0888,2.0912,2.093,2.0949,2.0967,2.0978,2.0988,2.1005,2.103,2.1045,2.1073,2.1096,2.1118,2.1128,2.1126,2.1127,2.1132,2.113,2.1126,2.1127,2.1072,2.1125,2.1125,2.1124,2.1124,2.1124,2.0893,2.0912,2.0931,2.0956,2.097,2.0987,2.1005,2.1016,2.1037,2.1061,2.1064,2.109,2.1107,2.1136,2.1147,2.1166,2.1161,2.1168,2.117,2.1172,2.1173,2.1124,2.117,2.117,2.117,2.117,2.117,0,2.0938,2.0951,2.0973,2.0999,2.1017,2.1015,2.1034,2.105,2.1073,2.1089,2.1108,2.1135,2.1157,2.117,2.1191,2.1204,2.1204,2.121,2.1208,2.121,2.1177,2.117,2.121,2.121,2.121,2.1209,2.1209,2.1209,2.0964,2.0995,2.1001,2.1039,2.1051,2.1077,2.1088,2.1103,2.1116,2.1147,2.1165,2.1174,2.1188,2.121,2.123,2.1233,2.124,2.1246,2.1249,2.1217,2.1213,2.1209,2.1202,2.1248,2.1248,2.128,2.1281,2.1281]}]]